Showing default

LILIUM-1, 58467

Orbit data source: Space-Track

LILIUM-1, 58467 is a Taiwanese payload satellite in SSO that was launched on Fri, 01 Dec 2023 UTC via an FALCON 9 launch vehicle from the Air Force Western Test Range (AFWTR). Payload-class satellites include a variety of spacecraft equipped with specific instruments for various scientific and technological missions. These include communications satellites like Starlink; space stations such as the ISS; scientific satellites like the Hubble; Earth observation satellites from companies like Planet Labs, Umbra, and HawkEye 360; GPS; miniature CubeSats for education and research; and military/defense satellites.

Loading next visibility...
Identifier
58467, 2023-185F
Orbit
SSO
Last TLE update
7 hours ago
Origin
Manufacturer
NCKU
Mission
Operational Amateur Technology
Bus & Motor
CUBESAT 3U, Unknown motor
Mass
4 kg wet, 4 kg dry
Launch date (UTC)
2023-12-01 (2 years ago)
Launch vehicle
FALCON 9
Launch site
Air Force Western Test Range (AFWTR)
Object type
Payload
Rocket body
Debris
Shape & HBR
Box, 0.3 m
Radar Cross Section
0.035 m², Medium (>0.1 m² and < 1m²)

Expand to show TLE details & history

TLE from 7 hours ago
0 LILIUM-1
1 58467U 23185F   25192.18095059  .00013299  00000-0  36550-3 0  9991
2 58467  97.3754 261.5699 0007803 355.1292   4.9875 15.37308340 89509
Epoch: 2025-07-11T04:20Z
TLE epoch observation values (Epoch: 2025-07-11T04:20:34.13Z)
Latitude
-0.00009°
Longitude
-92.90887°
Altitude
451.875 km
Speed
7.644 km/s
True Right ascension
17h 26m 16s
True Declination
0° 00' 00"
Sunlit
Object was in full shadow at epoch
Visualization orbit readout
Latitude
23.35134°
Longitude
90.56662°
Altitude
462.134 km
Speed
7.635 km/s
Apparent Right ascension
08h 09m 40s
Apparent Declination
-9° 40' 26"
Sunlit
Object is in daylight
Visualization observer readout
Local Sidereal Time
23:34:12
Azimuth
70.747° E
Elevation
-35.613°
Doppler factor
1
Orbital elements
Apogee altitude
456.343 km
Perigee altitude
445.685 km
Semi-major axis
6,829.151 km
Eccentricity
0.00078
Inclination
97.3754°
RAAN
261.5699°
Arg. of periapsis
355.1292°
True anomaly
Unknown
Mean anomaly
4.9875°
Eccentric anomaly
Unknown
Mean motion
3.84586 °/min
Orbital period
93.61 mins
BSTAR
0.0003655
Loading maneuver chart data...
Loading SW <> Apogee altitude chart data...
Loading historical data...
Loading historical data...
Loading historical data...
Loading historical data...
Loading historical data...
Loading historical data...
Loading historical data...

LILIUM-1 Visibility forecast

Observer location: undefined°, undefined°

Span
Click to sort rows by Start time (UTC) header in descending order
Start Az.
Max El. time (UTC)
Max El. Az.
Max El.
End time (UTC)
End Az.
6 mins2025-07-11 17:24:11.534Z18.631° NNE2025-07-11 17:27:11.534Z147.289° SSE41.444°2025-07-11 17:30:11.534Z185.688° SSW
|